This is the latest recevied weather packets stored in our database for station/object YO3FVR-WX. If no packets are shown the sender has not sent any weather packets the latest 10 day(s).
| Time | Temp. | Humidity | Pressure | Rain* | Wind** | Luminosity | Snow |
|---|---|---|---|---|---|---|---|
| 1777445477 | 12.22° C | 54% | 1014 hPa | 0 mm | - | - | - |
| 1777444277 | 12.22° C | 56% | 1014.1 hPa | 0 mm | - | - | - |
| 1777443048 | 11.67° C | 56% | 1014 hPa | 0 mm | - | - | - |
| 1777441847 | 11.11° C | 57% | 1013.7 hPa | 0 mm | - | - | - |
| 1777440647 | 10.56° C | 59% | 1013.7 hPa | 0 mm | - | - | - |
| 1777439418 | 10° C | 58% | 1013.7 hPa | 0 mm | - | - | - |
| 1777438217 | 10° C | 58% | 1013.7 hPa | 0 mm | - | - | - |
| 1777436988 | 10° C | 57% | 1013.7 hPa | 0 mm | - | - | - |
| 1777435787 | 10° C | 57% | 1013.5 hPa | 0 mm | - | - | - |
| 1777434587 | 10° C | 57% | 1013.5 hPa | 0 mm | - | - | - |
| 1777433387 | 10° C | 58% | 1013.5 hPa | 0 mm | - | - | - |
| 1777432157 | 10° C | 58% | 1013.4 hPa | 0 mm | - | - | - |
| 1777430928 | 10° C | 59% | 1013.4 hPa | 0 mm | - | - | - |
| 1777429727 | 10° C | 58% | 1013.4 hPa | 0 mm | - | - | - |
| 1777428527 | 10° C | 58% | 1013.3 hPa | 0 mm | - | - | - |
| 1777427297 | 10.56° C | 58% | 1013.3 hPa | 0 mm | - | - | - |
| 1777426067 | 10.56° C | 59% | 1013.2 hPa | 0 mm | - | - | - |
| 1777424867 | 10.56° C | 60% | 1013.3 hPa | 0 mm | - | - | - |
| 1777423638 | 10.56° C | 61% | 1013.5 hPa | 0 mm | - | - | - |
| 1777422437 | 11.11° C | 61% | 1013.4 hPa | 0 mm | - | - | - |
| 1777421208 | 12.22° C | 60% | 1013.1 hPa | 0 mm | - | - | - |
| 1777420008 | 12.78° C | 58% | 1013.1 hPa | 0 mm | - | - | - |
| 1777418777 | 12.78° C | 57% | 1012.7 hPa | 0 mm | - | - | - |
| 1777417547 | 13.33° C | 56% | 1012.8 hPa | 0 mm | - | - | - |
| 1777416317 | 13.33° C | 54% | 1012.8 hPa | 0 mm | - | - | - |
* Rain latest hour (hover to see other rain measurements)
** Current wind speed in m/s (hover to see current wind gust speed)